Volver al catálogo

STARLINK-30356

ActivoComunicacionesVLEO
NORAD 57748·PAYLOAD·🇺🇸 United States

Lanzado Sep 1, 2023 desde Cape Canaveral Space Force Station

Loading…

Próximos Pases (próximas 24 horas)

TLE

ActualizadoSource: CelesTrak SupGP

Época: Sep 14, 2026, 22:09 UTC

1 57748C 23131S   26257.92340278 -.00019085  00000+0 -69124-3 0  2574
2 57748  43.0002 183.4333 0001343 264.0014   7.6490 15.27588153    17

Sigue STARLINK-30356 en tiempo real con AllMySat

Download on the App Store